Regional Weather Roundup
Issued by NWS

Home | Current Version | Previous Version | Text Only | Print | Product List | Glossary On
Versions: 1 2 3 4 5 6 7 8 9 10 11 12 13 14 15 16 17 18 19 20 21 22 23 24 25 26 27 28 29 30 31 32 33 34 35 36 37 38 39 40 41 42 43 44 45 46 47 48 49 50
000
ASUS44 KFWD 280201
RWRTX
NORTH TEXAS HOURLY WEATHER ROUNDUP
NATIONAL WEATHER SERVICE FORT WORTH TX
900 PM CDT SAT AUG 27 2016

NOTE: "FAIR" INDICATES FEW OR NO CLOUDS BELOW 12,000 FEET WITH NO
SIGNIFICANT WEATHER AND/OR OBSTRUCTIONS TO VISIBILITY.

TXZ118-119-280300-
DALLAS/FORT WORTH METROPLEX

CITY           SKY/WX    TMP DP  RH WIND       PRES   REMARKS
DFW AIRPORT    PTCLDY    84  68  58 SE7       29.97R
DALLAS LOVE    CLOUDY    86  70  58 SE9       29.98R HX  90
FTW MEACHAM    CLEAR     86  67  52 E7        29.98R
DAL-EXECUTIVE  CLOUDY    83  71  67 SE8       29.98R
FTW-ALLIANCE   PTCLDY    81  67  62 SE6       29.98R
ARLINGTON      CLEAR     84  69  60 E8        29.98R
GRAND PRAIRIE  CLEAR     84  67  56 SE6       29.99S
ADDISON        PTCLDY    88  70  55 E7        29.99R HX  92
MESQUITE       PTCLDY    79  72  77 SE5       29.99R
LANCASTER      CLOUDY    81  69  66 CALM      29.99R
$$

TXZ091>094-102>105-117-120-121-131>134-280300-
NORTH CENTRAL TEXAS

CITY           SKY/WX    TMP DP  RH WIND       PRES   REMARKS
SHRMAN/DENISON NOT AVBL
GAINESVILLE      N/A     79  69  72 E3        30.01R
BRIDGEPORT     PTCLDY    77  77  99 SE3       30.00S
DECATUR        CLEAR     80  69  69 E5        30.00R
DENTON         CLEAR     82  69  64 SE5       29.98R
MCKINNEY       PTCLDY    82  71  69 E6        29.99R
GREENVILLE     CLOUDY    81  72  74 CALM      30.00R HAZE
ROCKWALL       PTCLDY    81  73  75 SE3       29.99R
TERRELL        PTCLDY    81  71  71 CALM      29.99R
WAXAHACHIE     CLEAR     79  71  76 CALM      30.00R
CLEBURNE       CLEAR     81  73  78 E7        30.01R
$$

TXZ083>090-098>101-113>116-127>130-139>142-154-155-280300-
WESTERN NORTH TEXAS

CITY           SKY/WX    TMP DP  RH WIND       PRES   REMARKS
WICHITA FALLS  CLOUDY    73  68  84 CALM      29.98R
WF-KICKAPOO    DRIZZLE   75  68  79 CALM      30.00R
VERNON         CLOUDY    77  63  61 SE7       30.01R
ABILENE        PTCLDY    73  68  84 S3        30.02R
ABILENE-DYESS  PTCLDY    76  67  72 SE3       30.01R
CISCO          PTCLDY    77  72  83 E3        30.02S
MINERAL WELLS  PTCLDY    78  72  81 E5        29.97R
STEPHENVILLE   CLEAR     76  71  84 CALM      30.03R
COMANCHE       CLEAR     77  73  86 E5        30.01R
BROWNWOOD      PTCLDY    81  70  69 E6        30.01R
COLEMAN        CLOUDY    79  68  70 CALM      30.03R
$$

TXZ143>147-156>162-174-175-280300-
CENTRAL TEXAS

CITY           SKY/WX    TMP DP  RH WIND       PRES   REMARKS
WACO           CLEAR     82  72  71 E7        29.97R
WACO-MCGREGOR  CLEAR     82  71  69 E3          N/A
HILLSBORO      CLEAR     79  69  73 E3        29.99R
CORSICANA      CLOUDY    82  74  76 E6        30.00R
MEXIA          PTCLDY    79  70  74 NE3       29.98R
HEARNE         CLOUDY    82  71  70 MISG      29.98R
CAMERON        MOCLDY    83  73  71 CALM      29.96R
TEMPLE         CLEAR     80  71  74 E5        29.98R
KILLEEN        CLEAR     83  70  66 E8        29.98R
KILLEEN-SKYLRK CLEAR     82  72  71 E5        29.99R
FORT HOOD      CLEAR     81  71  70 E5        29.96R
HAMILTON       CLEAR     80  70  72 E5        30.02R
$$

TXZ095>097-106>112-122>126-135>138-148>153-164>167-280300-
EAST TEXAS

CITY           SKY/WX    TMP DP  RH WIND       PRES   REMARKS
PARIS          MOCLDY    79  70  73 E6        30.00R
MOUNT PLEASANT PTCLDY    77  74  90 CALM      30.01R
GILMER         MOCLDY    79  74  85 CALM      30.00R THUNDER
TYLER          LGT RAIN  80  70  71 SE12      30.01R
LONGVIEW       CLOUDY    77  72  84 SE10      30.00R THUNDER
MARSHALL       CLOUDY    73  69  90 CALM      30.03S
ATHENS         CLOUDY    77  77 100 CALM      29.99R THUNDER
PALESTINE      CLOUDY    78  74  86 E3        30.00R
JACKSONVILLE   CLOUDY    77  72  84 E6        30.04R
HENDERSON      MOCLDY    75  72  88 E3        30.03R
CENTER         LGT RAIN  75  73  96 CALM      30.03S
NACOGDOCHES    CLOUDY   N/A N/A N/A E6        29.99R
LUFKIN         CLOUDY    76  72  87 E8        30.00R
$$

SUPPLEMENTAL OBSERVATIONS (CENTRAL)

CITY           SKY/WX    TMP DP  RH WIND       PRES   REMARKS
$$

SUPPLEMENTAL OBSERVATIONS (WEST)

CITY           SKY/WX    TMP DP  RH WIND       PRES   REMARKS
$$

SUPPLEMENTAL OBSERVATIONS (EAST)

CITY           SKY/WX    TMP DP  RH WIND       PRES   REMARKS
$$

SUPPLEMENTAL OBSERVATIONS ARE A COLLECTION OF AUTOMATED INSTRUMENTS
THAT ARE MAINTAINED BY A VARIETY OF FEDERAL AND STATE AGENCIES.
CERTAIN ELEMENTS...SUCH AS HUMIDITY VALUES AND SUSTAINED WIND
SPEEDS...MAY BE APPROXIMATED.





USA.gov is the U.S. government's official web portal to all federal, state and local government web resources and services.